CW9803 Weather Reports


time (UTC)temp
F
wind
direction
speed
knots
gust
knots
rain 1hr
in
rain 24hr
in
rain mn
in
humidity
%
barometer
mb
20260831115306 39 89 0.9 0.9 0.00 0.00 0.00 77 1013.8
20260831114804 39 102 0.0 0.0 0.00 0.00 0.00 76 1013.8
20260831114259 39 178 0.9 0.9 0.00 0.00 0.00 76 1013.9
20260831113754 39 149 0.9 0.9 0.00 0.00 0.00 76 1013.8
20260831113248 39 155 0.9 0.9 0.00 0.00 0.00 76 1013.8
20260831112747 39 145 0.0 0.0 0.00 0.00 0.00 75 1014.0
20260831112243 39 115 0.0 0.0 0.00 0.00 0.00 76 1014.0
20260831111738 39 115 0.0 0.0 0.00 0.00 0.00 77 1013.8
20260831111235 39 118 0.0 0.0 0.00 0.00 0.00 77 1013.8
20260831110730 39 129 0.0 0.0 0.00 0.00 0.00 77 1013.8
20260831110225 40 130 0.0 0.0 0.00 0.00 0.00 76 1014.0
20260831105723 40 129 0.0 0.0 0.00 0.00 0.00 77 1014.2
20260831105219 40 131 0.9 0.9 0.00 0.00 0.00 78 1013.9
20260831104714 40 117 0.0 0.0 0.00 0.00 0.00 79 1013.9
20260831104211 40 131 0.0 0.0 0.00 0.00 0.00 78 1014.0
20260831103710 40 133 0.0 0.0 0.00 0.00 0.00 76 1013.9
20260831103206 40 147 0.0 0.0 0.00 0.00 0.00 76 1013.9
20260831102701 40 147 0.0 0.0 0.00 0.00 0.00 75 1013.8
20260831102200 40 147 0.0 0.0 0.00 0.00 0.00 75 1014.2
20260831101656 41 147 0.0 0.0 0.00 0.00 0.00 75 1013.9
20260831101152 41 147 0.0 0.0 0.00 0.00 0.00 77 1014.0
20260831100648 41 147 0.0 0.0 0.00 0.00 0.00 78 1014.2
20260831100144 41 147 0.0 0.0 0.00 0.00 0.00 77 1014.2
20260831095641 41 147 0.0 0.0 0.00 0.00 0.00 77 1014.2
20260831095137 41 147 0.0 0.0 0.00 0.00 0.00 76 1014.2
20260831094632 41 147 0.0 0.0 0.00 0.00 0.00 77 1013.9
20260831094128 41 148 0.9 0.9 0.00 0.00 0.00 76 1014.2
20260831093623 42 114 0.0 0.0 0.00 0.00 0.00 73 1014.2
20260831093119 42 114 0.0 0.0 0.00 0.00 0.00 73 1014.4
20260831092615 42 114 0.0 0.0 0.00 0.00 0.00 72 1014.3
20260831092111 42 114 0.0 0.0 0.00 0.00 0.00 72 1014.4
20260831091610 42 114 0.0 0.0 0.00 0.00 0.00 71 1014.0
20260831091106 42 114 0.0 0.0 0.00 0.00 0.00 71 1014.3
20260831090601 42 114 0.0 0.0 0.00 0.00 0.00 70 1014.2
20260831090057 43 114 0.0 0.0 0.00 0.00 0.00 71 1014.4
20260831085552 43 116 0.0 0.0 0.00 0.00 0.00 70 1014.4
20260831085047 43 119 0.0 0.0 0.00 0.00 0.00 71 1014.4
20260831084544 43 125 0.0 0.0 0.00 0.00 0.00 70 1014.5
20260831084040 43 128 0.0 0.0 0.00 0.00 0.00 70 1014.4
20260831083536 44 127 0.0 0.0 0.00 0.00 0.00 70 1014.5
20260831083036 44 132 0.0 0.0 0.00 0.00 0.00 69 1014.3
20260831082529 44 120 0.0 0.0 0.00 0.00 0.00 69 1014.5
20260831082019 45 141 0.0 0.0 0.00 0.00 0.00 70 1014.5
20260831081514 44 142 0.0 0.0 0.00 0.00 0.00 72 1014.6
20260831081010 45 142 0.0 0.0 0.00 0.00 0.00 71 1014.6
20260831080504 45 142 0.0 0.0 0.00 0.00 0.00 70 1014.5
20260831080000 45 142 0.0 0.0 0.00 0.00 0.00 69 1014.4
20260831075455 45 129 0.0 0.0 0.00 0.00 0.00 70 1014.6
20260831074950 46 129 0.0 0.0 0.00 0.00 0.00 70 1014.7
20260831074444 45 128 0.0 0.0 0.00 0.00 0.00 70 1014.5
20260831073938 46 129 0.0 0.0 0.00 0.00 0.00 70 1014.5
20260831073433 46 128 0.0 0.0 0.00 0.00 0.00 70 1014.4
20260831072927 46 128 0.0 0.0 0.00 0.00 0.00 70 1014.6
20260831072423 47 125 0.0 0.0 0.00 0.00 0.00 66 1014.6
20260831071920 47 122 0.0 0.0 0.00 0.00 0.00 65 1014.6
20260831071418 47 119 0.0 0.0 0.00 0.00 0.00 63 1014.7
20260831070918 48 123 0.0 0.0 0.00 0.00 0.00 62 1014.7
20260831070417 48 103 0.9 0.9 0.00 0.00 0.00 63 1014.3
20260831065917 48 136 0.0 0.0 0.00 0.00 0.00 64 1014.5
20260831065415 48 130 0.0 0.0 0.00 0.00 0.00 61 1014.6
20260831064910 49 145 0.0 0.0 0.00 0.00 0.00 60 1014.4
20260831064405 49 148 0.0 0.0 0.00 0.00 0.00 59 1014.4
20260831063901 49 144 0.0 0.0 0.00 0.00 0.00 59 1014.4
20260831063355 49 144 0.0 0.0 0.00 0.00 0.00 59 1014.4
20260831062850 49 94 0.0 0.0 0.00 0.00 0.00 60 1014.3
20260831062345 49 101 0.0 0.0 0.00 0.00 0.00 59 1014.5
20260831061843 49 146 0.0 0.0 0.00 0.00 0.00 58 1014.2
20260831061342 49 110 0.0 0.0 0.00 0.00 0.00 58 1014.4
20260831060839 50 113 0.0 0.0 0.00 0.00 0.00 58 1014.6
20260831060334 50 115 0.0 0.0 0.00 0.00 0.00 57 1014.6
20260831055833 50 132 0.0 0.0 0.00 0.00 0.00 56 1014.7
20260831055328 50 134 0.0 0.0 0.00 0.00 0.00 57 1014.7
20260831054823 51 145 0.0 0.0 0.00 0.00 0.00 59 1014.5
20260831054319 51 145 0.0 0.0 0.00 0.00 0.00 56 1014.4
20260831053817 51 151 0.0 0.0 0.00 0.00 0.00 55 1014.5
20260831053311 52 143 0.0 0.0 0.00 0.00 0.00 54 1014.6
20260831052805 52 112 0.0 0.0 0.00 0.00 0.00 54 1014.7
20260831052306 52 146 0.0 0.0 0.00 0.00 0.00 55 1014.6
20260831051802 52 146 0.0 0.0 0.00 0.00 0.00 55 1014.6
20260831051256 53 147 0.0 0.0 0.00 0.00 0.00 54 1014.7
20260831050751 53 121 0.0 0.0 0.00 0.00 0.00 53 1014.8
20260831050250 54 132 0.0 0.0 0.00 0.00 0.00 53 1014.6
20260831045744 55 141 0.0 0.0 0.00 0.00 0.00 51 1014.5
20260831045238 55 139 0.0 0.0 0.00 0.00 0.00 51 1014.7
20260831044733 55 138 0.0 0.0 0.00 0.00 0.00 51 1014.6
20260831044223 55 154 0.0 0.0 0.00 0.00 0.00 51 1014.5
20260831043719 56 140 0.0 0.0 0.00 0.00 0.00 49 1014.5
20260831043213 57 140 0.0 0.0 0.00 0.00 0.00 48 1014.6
20260831042713 57 139 0.0 0.0 0.00 0.00 0.00 48 1014.4
20260831042208 58 190 1.7 1.7 0.00 0.00 0.00 47 1014.7
20260831041702 57 158 0.0 0.0 0.00 0.00 0.00 47 1014.7
20260831041156 58 150 0.0 0.0 0.00 0.00 0.00 47 1014.5
20260831040652 58 105 0.0 0.0 0.00 0.00 0.00 46 1014.4
20260831040150 59 151 0.0 0.0 0.00 0.00 0.00 45 1014.3
20260831035649 59 151 0.0 0.0 0.00 0.00 0.00 44 1014.6
20260831035144 60 156 0.0 0.0 0.00 0.00 0.00 43 1014.5
20260831034643 61 145 0.0 0.0 0.00 0.00 0.00 43 1014.2
20260831034138 61 130 0.0 0.0 0.00 0.00 0.00 42 1014.3
20260831033634 62 150 0.0 0.0 0.00 0.00 0.00 41 1013.9
20260831033129 62 154 0.0 0.0 0.00 0.00 0.00 40 1014.2
20260831032628 62 154 0.0 0.0 0.00 0.00 0.00 39 1014.0
20260831032124 62 124 0.0 0.0 0.00 0.00 0.00 41 1013.9
20260831031619 62 123 0.0 0.0 0.00 0.00 0.00 40 1013.8
20260831031118 63 159 0.9 0.9 0.00 0.00 0.00 41 1013.7
20260831030617 63 150 0.0 0.0 0.00 0.00 0.00 39 1013.6
20260831030116 64 137 0.0 0.0 0.00 0.00 0.00 38 1013.7
20260831025615 65 163 0.0 0.0 0.00 0.00 0.00 37 1013.5
20260831025110 66 145 0.0 0.0 0.00 0.00 0.00 36 1013.6
20260831024606 66 111 0.0 0.0 0.00 0.00 0.00 35 1013.2
20260831024104 66 204 0.0 0.9 0.00 0.00 0.00 36 1013.4
20260831023603 67 112 0.0 0.0 0.00 0.00 0.00 35 1013.4
20260831023102 68 100 0.9 0.9 0.00 0.00 0.00 34 1013.2
20260831022557 68 109 1.7 1.7 0.00 0.00 0.00 34 1013.3
20260831022052 68 102 0.0 0.9 0.00 0.00 0.00 34 1013.2
20260831021551 68 87 0.9 0.9 0.00 0.00 0.00 34 1013.1
20260831021047 69 85 0.9 0.9 0.00 0.00 0.00 33 1013.0
20260831020542 70 32 1.7 2.6 0.00 0.00 0.00 32 1013.4
20260831020037 71 101 0.9 1.7 0.00 0.00 0.00 31 1013.1
20260831015532 71 65 0.9 1.7 0.00 0.00 0.00 31 1013.1
20260831015022 73 88 0.0 0.9 0.00 0.00 0.00 29 1013.4
20260831014522 73 217 0.9 0.9 0.00 0.00 0.00 29 1013.4
20260831014018 74 258 2.6 3.5 0.00 0.00 0.00 29 1013.3
20260831013514 74 155 0.0 0.9 0.00 0.00 0.00 28 1013.2
20260831013014 74 103 0.9 1.7 0.00 0.00 0.00 28 1013.3
20260831012508 75 180 0.9 0.9 0.00 0.00 0.00 27 1013.3
20260831012003 75 66 1.7 1.7 0.00 0.00 0.00 27 1013.5
20260831011457 75 211 1.7 1.7 0.00 0.00 0.00 27 1013.3
20260831010953 75 71 0.9 0.9 0.00 0.00 0.00 27 1013.2
20260831010453 75 164 0.9 1.7 0.00 0.00 0.00 26 1013.4
20260831005949 75 315 2.6 2.6 0.00 0.00 0.00 26 1013.2
20260831005445 76 203 1.7 2.6 0.00 0.00 0.00 25 1013.3
20260831004944 75 291 3.5 3.5 0.00 0.00 0.00 25 1013.3
20260831004440 77 173 2.6 2.6 0.00 0.00 0.00 25 1013.4
20260831003936 77 118 0.9 0.9 0.00 0.00 0.00 24 1013.2
20260831003432 77 213 0.0 0.9 0.00 0.00 0.00 24 1013.3
20260831002931 77 156 0.0 0.9 0.00 0.00 0.00 24 1013.2
20260831002430 78 176 0.9 1.7 0.00 0.00 0.00 24 1013.3
20260831001926 77 142 0.0 0.0 0.00 0.00 0.00 24 1013.5
20260831001421 75 155 0.0 0.0 0.00 0.00 0.00 25 1013.4
20260831000919 77 254 1.7 2.6 0.00 0.00 0.00 25 1013.3
20260831000414 76 135 0.0 0.0 0.00 0.00 0.00 25 1013.3
20260830235912 76 324 1.7 2.6 0.00 0.00 0.00 25 1013.3
20260830235407 76 156 2.6 2.6 0.00 0.00 0.00 25 1013.5
20260830234903 77 161 1.7 1.7 0.00 0.00 0.00 25 1013.2
20260830234357 75 167 1.7 2.6 0.00 0.00 0.00 27 1013.3
20260830233853 76 185 4.3 6.1 0.00 0.00 0.00 26 1013.4
20260830233348 77 168 1.7 2.6 0.00 0.00 0.00 25 1013.4
20260830232844 76 152 1.7 2.6 0.00 0.00 0.00 26 1013.6
20260830232339 76 206 2.6 3.5 0.00 0.00 0.00 26 1013.7
20260830231836 76 222 2.6 2.6 0.00 0.00 0.00 25 1013.7
20260830231336 76 227 3.5 3.5 0.00 0.00 0.00 26 1013.6
20260830230830 75 269 5.2 6.1 0.00 0.00 0.00 25 1013.7
20260830230325 75 173 0.9 1.7 0.00 0.00 0.00 27 1013.4
20260830225819 76 163 1.7 1.7 0.00 0.00 0.00 25 1013.7
20260830225314 76 182 1.7 1.7 0.00 0.00 0.00 25 1013.8
20260830224809 77 185 1.7 1.7 0.00 0.00 0.00 27 1013.9
20260830224303 76 247 2.6 2.6 0.00 0.00 0.00 27 1013.9
20260830223800 75 175 5.2 6.1 0.00 0.00 0.00 28 1013.7
20260830223255 75 173 5.2 7.0 0.00 0.00 0.00 29 1014.0
20260830222749 75 145 0.9 1.7 0.00 0.00 0.00 29 1013.9
20260830222246 75 175 2.6 3.5 0.00 0.00 0.00 28 1013.9
20260830221740 75 172 3.5 3.5 0.00 0.00 0.00 29 1014.2
20260830221238 75 142 0.9 0.9 0.00 0.00 0.00 29 1014.2
20260830220733 73 171 0.0 0.9 0.00 0.00 0.00 30 1014.2
20260830220231 73 138 1.7 3.5 0.00 0.00 0.00 30 1014.2
20260830215730 74 163 0.9 1.7 0.00 0.00 0.00 30 1014.5
20260830215225 73 189 0.0 0.0 0.00 0.00 0.00 30 1014.5
20260830214720 73 143 4.3 6.1 0.00 0.00 0.00 31 1014.6
20260830214215 73 67 2.6 2.6 0.00 0.00 0.00 31 1014.5
20260830213714 72 161 2.6 3.5 0.00 0.00 0.00 32 1014.7
20260830213209 73 162 3.5 5.2 0.00 0.00 0.00 31 1014.7
20260830212700 74 215 1.7 1.7 0.00 0.00 0.00 30 1015.0
20260830212155 74 150 1.7 2.6 0.00 0.00 0.00 32 1014.9
20260830211654 73 144 2.6 2.6 0.00 0.00 0.00 31 1014.7
20260830211153 72 177 2.6 2.6 0.00 0.00 0.00 33 1015.0
20260830210649 72 129 0.9 1.7 0.00 0.00 0.00 32 1015.0
20260830210148 71 151 1.7 3.5 0.00 0.00 0.00 32 1015.0
20260830205646 72 157 2.6 3.5 0.00 0.00 0.00 32 1015.1
20260830205141 71 150 2.6 2.6 0.00 0.00 0.00 32 1015.1
20260830204641 70 162 0.9 0.9 0.00 0.00 0.00 33 1015.6
20260830204140 72 137 1.7 2.6 0.00 0.00 0.00 32 1015.3
20260830203636 71 152 1.7 2.6 0.00 0.00 0.00 33 1015.1
20260830203131 71 138 2.6 2.6 0.00 0.00 0.00 33 1015.2
20260830202630 71 127 0.0 0.0 0.00 0.00 0.00 34 1015.3
20260830202126 71 205 0.9 2.6 0.00 0.00 0.00 32 1015.2
20260830201625 69 176 4.3 5.2 0.00 0.00 0.00 34 1015.3
20260830201121 68 232 2.6 2.6 0.00 0.00 0.00 35 1015.6
20260830200616 68 151 3.5 3.5 0.00 0.00 0.00 36 1015.5
20260830200115 69 141 0.9 1.7 0.00 0.00 0.00 36 1015.5
20260830195611 68 163 0.0 0.9 0.00 0.00 0.00 37 1015.7
20260830195108 67 110 1.7 2.6 0.00 0.00 0.00 38 1015.7
20260830194608 68 236 3.5 6.1 0.00 0.00 0.00 37 1015.7
20260830194103 68 172 4.3 6.1 0.00 0.00 0.00 37 1015.8
20260830193602 67 176 0.9 1.7 0.00 0.00 0.00 38 1015.6
20260830193057 66 233 3.5 3.5 0.00 0.00 0.00 39 1015.8
20260830192553 68 224 2.6 2.6 0.00 0.00 0.00 36 1015.9
20260830192052 67 194 4.3 6.1 0.00 0.00 0.00 38 1016.0
20260830191548 66 207 3.5 5.2 0.00 0.00 0.00 40 1016.0
20260830191043 67 144 5.2 6.1 0.00 0.00 0.00 40 1016.1
20260830190538 66 101 0.9 1.7 0.00 0.00 0.00 39 1016.1
20260830190028 66 279 0.9 1.7 0.00 0.00 0.00 40 1016.2
20260830185522 66 147 7.0 7.0 0.00 0.00 0.00 40 1016.3
20260830185018 65 147 1.7 2.6 0.00 0.00 0.00 39 1016.3
20260830184516 64 125 2.6 3.5 0.00 0.00 0.00 41 1016.2
20260830184005 66 202 1.7 1.7 0.00 0.00 0.00 40 1016.3
20260830183500 65 141 1.7 3.5 0.00 0.00 0.00 42 1016.3
20260830182955 65 106 0.9 0.9 0.00 0.00 0.00 41 1016.4
20260830182450 65 173 1.7 2.6 0.00 0.00 0.00 42 1016.5
20260830181946 65 157 5.2 6.1 0.00 0.00 0.00 42 1016.4
20260830181442 64 150 1.7 1.7 0.00 0.00 0.00 41 1016.5
20260830180936 62 191 0.9 1.7 0.00 0.00 0.00 43 1016.8
20260830180435 64 264 2.6 5.2 0.00 0.00 0.00 42 1016.6
20260830175934 63 170 1.7 2.6 0.00 0.00 0.00 44 1016.5
20260830175429 63 162 1.7 3.5 0.00 0.00 0.00 44 1016.6
20260830174924 61 175 3.5 5.2 0.00 0.00 0.00 46 1016.6
20260830174419 62 136 0.9 0.9 0.00 0.00 0.00 45 1016.8
20260830173915 60 105 1.7 2.6 0.00 0.00 0.00 47 1016.8
20260830173410 61 141 1.7 2.6 0.00 0.00 0.00 46 1016.9
20260830172906 60 160 0.9 2.6 0.00 0.00 0.00 49 1016.9
20260830172402 61 163 3.5 5.2 0.00 0.00 0.00 48 1017.0
20260830171857 60 123 0.9 1.7 0.00 0.00 0.00 49 1017.0
20260830171353 61 240 3.5 3.5 0.00 0.00 0.00 49 1017.1
20260830170848 59 142 0.9 0.9 0.00 0.00 0.00 50 1017.1
20260830170347 57 277 3.5 5.2 0.00 0.00 0.00 54 1017.0
20260830165845 58 203 1.7 1.7 0.00 0.00 0.00 53 1017.1
20260830165342 58 255 2.6 2.6 0.00 0.00 0.00 53 1017.2
20260830164838 58 198 1.7 2.6 0.00 0.00 0.00 54 1017.1
20260830164328 58 333 1.7 2.6 0.00 0.00 0.00 54 1017.0
20260830163825 58 117 0.0 0.0 0.00 0.00 0.00 53 1017.1
20260830163320 56 106 0.9 0.9 0.00 0.00 0.00 57 1017.2
20260830162814 56 140 1.7 2.6 0.00 0.00 0.00 57 1017.3
20260830162311 56 161 3.5 5.2 0.00 0.00 0.00 58 1017.3
20260830161806 55 121 0.0 0.0 0.00 0.00 0.00 58 1017.2
20260830161305 54 120 0.0 0.0 0.00 0.00 0.00 60 1017.2
20260830160801 54 115 0.9 0.9 0.00 0.00 0.00 61 1017.3
20260830160301 53 123 0.9 0.9 0.00 0.00 0.00 61 1017.4
20260830155756 54 116 1.7 1.7 0.00 0.00 0.00 61 1017.3
20260830155253 52 134 0.0 0.0 0.00 0.00 0.00 64 1017.4
20260830154747 51 121 0.0 0.0 0.00 0.00 0.00 64 1017.4
20260830154243 51 111 0.9 0.9 0.00 0.00 0.00 65 1017.3
20260830153739 50 117 0.0 0.0 0.00 0.00 0.00 67 1017.4
20260830153235 48 139 0.0 0.0 0.00 0.00 0.00 70 1017.4
20260830152733 48 61 1.7 1.7 0.00 0.00 0.00 70 1017.4
20260830152228 47 133 0.0 0.0 0.00 0.00 0.00 73 1017.5
20260830151723 46 150 0.0 0.0 0.00 0.00 0.00 73 1017.4
20260830151222 47 121 0.0 0.0 0.00 0.00 0.00 72 1017.4
20260830150717 46 121 0.9 0.9 0.00 0.00 0.00 73 1017.5
20260830150212 46 144 0.0 0.0 0.00 0.00 0.00 74 1017.4
20260830145711 45 136 0.0 0.0 0.00 0.00 0.00 73 1017.5
20260830145207 45 139 0.0 0.0 0.00 0.00 0.00 74 1017.5
20260830144701 42 139 0.0 0.0 0.00 0.00 0.00 79 1017.4
20260830144158 42 137 0.0 0.0 0.00 0.00 0.00 79 1017.3
20260830143653 41 138 0.0 0.0 0.00 0.00 0.00 81 1017.3
20260830143151 40 133 0.0 0.0 0.00 0.00 0.00 82 1017.4
20260830142647 40 140 0.9 0.9 0.00 0.00 0.00 83 1017.5
20260830142142 40 142 0.0 0.0 0.00 0.00 0.00 83 1017.2
20260830141637 39 143 0.0 0.0 0.00 0.00 0.00 85 1017.4
20260830141132 39 116 0.0 0.0 0.00 0.00 0.00 86 1017.3
20260830140627 38 116 0.0 0.0 0.00 0.00 0.00 87 1017.4
20260830140121 37 116 0.0 0.0 0.00 0.00 0.00 87 1017.3
20260830135622 38 115 0.0 0.0 0.00 0.00 0.00 86 1017.3
20260830135117 38 111 0.0 0.0 0.00 0.00 0.00 86 1017.4
20260830134613 37 99 0.9 0.9 0.00 0.00 0.00 87 1017.2
20260830134108 36 119 0.0 0.0 0.00 0.00 0.00 90 1017.2
20260830133603 35 119 0.0 0.0 0.00 0.00 0.00 90 1017.3
20260830133058 35 120 0.0 0.0 0.00 0.00 0.00 90 1017.2
20260830132554 35 120 0.0 0.0 0.00 0.00 0.00 90 1016.8
20260830132049 35 120 0.0 0.0 0.00 0.00 0.00 90 1017.1
20260830131548 35 119 0.0 0.0 0.00 0.00 0.00 90 1017.2
20260830131043 35 118 0.0 0.0 0.00 0.00 0.00 90 1016.9
20260830130538 35 118 0.0 0.0 0.00 0.00 0.00 90 1016.9
20260830130033 35 118 0.0 0.0 0.00 0.00 0.00 89 1016.9
20260830125528 35 118 0.0 0.0 0.00 0.00 0.00 89 1016.6
20260830125027 36 118 0.0 0.0 0.00 0.00 0.00 89 1017.0
20260830124526 36 117 0.0 0.0 0.00 0.00 0.00 89 1016.8
20260830124022 36 117 0.0 0.0 0.00 0.00 0.00 88 1016.6
20260830123519 36 117 0.0 0.0 0.00 0.00 0.00 88 1016.6
20260830123014 36 105 0.9 0.9 0.00 0.00 0.00 87 1016.8
20260830122510 37 106 0.0 0.0 0.00 0.00 0.00 87 1016.8
20260830122006 37 140 0.0 0.0 0.00 0.00 0.00 87 1016.5
20260830121502 37 149 0.0 0.0 0.00 0.00 0.00 86 1016.8
20260830121001 37 181 0.0 0.0 0.00 0.00 0.00 87 1016.6
20260830120456 37 115 0.0 0.0 0.00 0.00 0.00 87 1016.6
20260830115953 37 114 0.0 0.0 0.00 0.00 0.00 87 1016.5